Flag for Cameroon Weather past 2 weeks in Douala, Cameroon

Now
77 °F

Passing clouds.


Feels Like: 78 °F
Forecast: 74 / 82 °F
Wind: 5 mph from Southwest

Location: Douala Obs.

Current Time: Jul 31, 2015 at 8:32:13 PM

Latest Report: Jul 31, 2015 at 8:00 PM


Visibility: N/A

Pressure: 29.89 "Hg

Humidity: 89%

Dew point: 73 °F

Location of DoualaLocation

Historic Weather in Douala — Graph

°F

Douala temperature yesterday

Maximum temperature yesterday: 77 °F (at 12:00 PM)
Minimum temperature yesterday: 73 °F (at 1:00 AM)
Average temperature yesterday: 75 °F

Past Weeks' High & Low Weather Summary

 TemperatureHumidityPressure
High84 °F (Jul 17, 3:00 PM)100% (Jul 17, 6:00 AM)30.01 "Hg (Jul 17, 6:00 AM)
Low73 °F (Jul 21, 3:00 AM)70% (Jul 17, 2:00 PM)29.86 "Hg (Jul 17, 3:00 PM)
Average77 °F91%29.94 "Hg
* Reported Jul 16 7:00 PM — Jul 31 7:00 PM, Douala, Weather by CustomWeather, © 2015

Note: Actual official high and low records may vary slightly from our data, if they occured in-between our weather recording intervals... More about our weather records

Advertising

Douala weather history for previous 24 hours

 ConditionsComfort  
Time TempWeatherWind HumidityBarometerVisibility
7:00 PM
Fri, Jul 31
77 °FPassing clouds.5 mph89%29.86 "HgN/A
6:00 PM77 °FPartly sunny.9 mph89%29.86 "HgN/A
5:00 PM79 °FPartly sunny.7 mph84%29.86 "HgN/A
4:00 PM79 °FPartly sunny.9 mph89%29.89 "HgN/A
3:00 PM77 °FLight rain. Broken clouds.5 mph94%29.89 "Hg4 mi
2:00 PM81 °FDrizzle. Partly sunny.2 mph79%29.92 "Hg3 mi
1:00 PM79 °FPartly sunny.7 mph89%29.95 "Hg5 mi
12:00 PM81 °FBroken clouds.5 mph79%30.01 "Hg5 mi
11:00 AM81 °FBroken clouds.7 mph79%30.01 "Hg5 mi
10:00 AM77 °FBroken clouds.9 mph89%30.01 "Hg5 mi
9:00 AM75 °FDrizzle. Broken clouds.5 mph94%30.01 "Hg4 mi
8:00 AM75 °FBroken clouds.12 mph94%29.98 "Hg4 mi
7:00 AM73 °FPartly sunny.2 mph100%29.95 "Hg5 mi
6:00 AM73 °FPassing clouds.2 mph100%29.95 "Hg5 mi
5:00 AM73 °FPartly cloudy.No wind100%29.95 "Hg4 mi
4:00 AM73 °FPartly cloudy.2 mph100%29.95 "Hg4 mi
3:00 AM73 °FPartly cloudy.No wind100%29.95 "HgN/A
2:00 AM73 °FPartly cloudy.No wind100%29.98 "HgN/A
1:00 AM75 °FPartly cloudy.No wind94%29.98 "HgN/A
12:00 AM75 °FPartly cloudy.2 mph94%30.01 "Hg5 mi
11:00 PM
Thu, Jul 30
75 °FPartly cloudy.5 mph94%30.01 "HgN/A
10:00 PM75 °FDrizzle. Mostly cloudy.5 mph94%29.98 "Hg4 mi
9:00 PM75 °FDrizzle. Mostly cloudy.5 mph94%29.98 "Hg4 mi
8:00 PM75 °FDrizzle. Mostly cloudy.5 mph100%29.95 "Hg1 mi
Weather by CustomWeather, © 2015

See weather overviewHow to use our weather pages